,,,PA_Meas_PMT16A,,PR_Meas_QMR101_102,,RH_Meas_QMH101,,SR_Meas_QMS101,,TA_Meas_QMH101,,GenWind,,GenWind,
date,time,status,PA,status,PR,status,RH,status,SR,status,TA,status,DirAvg,status,SpdAvg,
2012-11-29, 00:00:05,VALID,1009.87,VALID,0,VALID,104,VALID,0,VALID,24.2202,VALID,103,VALID,0.645703,
2012-11-29, 00:01:05,VALID,1009.87,VALID,0,VALID,104,VALID,0,VALID,24.1812,VALID,76,VALID,0.427734,
2012-11-29, 00:02:05,VALID,1009.84,VALID,0,VALID,104,VALID,0,VALID,24.2007,VALID,75,VALID,0.3125,
2012-11-29, 00:03:05,VALID,1009.81,VALID,0,VALID,104,VALID,0,VALID,24.2007,VALID,75,VALID,0.186719,
2012-11-29, 00:04:05,VALID,1009.79,VALID,0,VALID,104,VALID,0.112112,VALID,24.1599,VALID,76,VALID,0.121094,
2012-11-29, 00:05:05,VALID,1009.76,VALID,0,VALID,104,VALID,0.112112,VALID,24.1988,VALID,75,VALID,0.401172,
2012-11-29, 00:06:05,VALID,1009.74,VALID,0,VALID,104,VALID,0,VALID,24.1014,VALID,75,VALID,0.254297,
2012-11-29, 00:07:05,VALID,1009.72,VALID,0,VALID,104,VALID,0,VALID,24.1617,VALID,75,VALID,0.00351562,
2012-11-29, 00:08:05,VALID,1009.68,VALID,0,VALID,104,VALID,0,VALID,24.1404,VALID,75,VALID,0.0285156,
2012-11-29, 00:09:05,VALID,1009.65,VALID,0,VALID,104,VALID,0.112112,VALID,24.1404,VALID,75,VALID,0.0359375,
2012-11-29, 00:10:05,VALID,1009.65,VALID,0,VALID,104,VALID,0,VALID,24.1209,VALID,75,VALID,0.351563,
2012-11-29, 00:11:05,VALID,1009.6,VALID,0,VALID,104,VALID,0.112112,VALID,24.1227,VALID,75,VALID,0.283594,
2012-11-29, 00:12:05,VALID,1009.57,VALID,0,VALID,104,VALID,0,VALID,24.1422,VALID,75,VALID,0.448047,
2012-11-29, 00:13:05,VALID,1009.57,VALID,0,VALID,104,VALID,0,VALID,24.1227,VALID,75,VALID,0.43125,
2012-11-29, 00:14:05,VALID,1009.52,VALID,0,VALID,104,VALID,0,VALID,24.1227,VALID,75,VALID,0.397266,
2012-11-29, 00:15:05,VALID,1009.51,VALID,0,VALID,104,VALID,0,VALID,24.1014,VALID,75,VALID,0.251953,
2012-11-29, 00:16:05,VALID,1009.49,VALID,0,VALID,104,VALID,0,VALID,24.0819,VALID,75,VALID,0.377734,
2012-11-29, 00:17:05,VALID,1009.45,VALID,0,VALID,104,VALID,0.112112,VALID,24.0429,VALID,75,VALID,0.0699219,
2012-11-29, 00:18:05,VALID,1009.41,VALID,0,VALID,104,VALID,0.112112,VALID,24.0429,VALID,75,VALID,0.208203,
2012-11-29, 00:19:05,VALID,1009.4,VALID,0,VALID,104,VALID,0,VALID,24.0837,VALID,75,VALID,0.00273437,
2012-11-29, 00:20:05,VALID,1009.36,VALID,0,VALID,104,VALID,0,VALID,24.0624,VALID,75,VALID,0.313281,
2012-11-29, 00:21:05,VALID,1009.37,VALID,0,VALID,104,VALID,0,VALID,24.0235,VALID,75,VALID,0.0234375,
2012-11-29, 00:22:05,VALID,1009.36,VALID,0,VALID,104,VALID,0.112112,VALID,23.9845,VALID,75,VALID,0.324609,
2012-11-29, 00:23:05,VALID,1009.36,VALID,0,VALID,104,VALID,0,VALID,24.0253,VALID,75,VALID,0.046875,
2012-11-29, 00:24:05,VALID,1009.38,VALID,0,VALID,104,VALID,0,VALID,24.0253,VALID,75,VALID,0.00117188,
2012-11-29, 00:25:05,VALID,1009.36,VALID,0,VALID,104,VALID,0,VALID,24.0058,VALID,75,VALID,0.221875,
2012-11-29, 00:26:05,VALID,1009.37,VALID,0,VALID,104,VALID,0,VALID,23.9455,VALID,75,VALID,0,
2012-11-29, 00:27:05,VALID,1009.41,VALID,0,VALID,104,VALID,0.112112,VALID,24.0253,VALID,75,VALID,0.0390625,
2012-11-29, 00:28:05,VALID,1009.4,VALID,0,VALID,104,VALID,0.112112,VALID,23.965,VALID,75,VALID,0.119922,
2012-11-29, 00:29:05,VALID,1009.4,VALID,0,VALID,104,VALID,0,VALID,23.9845,VALID,75,VALID,0,
2012-11-29, 00:30:05,VALID,1009.41,VALID,0,VALID,104,VALID,0,VALID,23.9668,VALID,75,VALID,0.0191406,
2012-11-29, 00:31:05,VALID,1009.37,VALID,0,VALID,104,VALID,0.112112,VALID,23.9845,VALID,75,VALID,0.299609,
2012-11-29, 00:32:05,VALID,1009.33,VALID,0,VALID,104,VALID,0,VALID,23.9845,VALID,75,VALID,0.357031,
2012-11-29, 00:33:05,VALID,1009.3,VALID,0,VALID,104,VALID,0,VALID,23.9455,VALID,75,VALID,0.363281,
2012-11-29, 00:34:05,VALID,1009.26,VALID,0,VALID,104,VALID,0,VALID,23.9455,VALID,75,VALID,0.384375,
2012-11-29, 00:35:05,VALID,1009.23,VALID,0,VALID,104,VALID,0,VALID,23.965,VALID,75,VALID,0.458594,
2012-11-29, 00:36:05,VALID,1009.17,VALID,0,VALID,104,VALID,0,VALID,23.9473,VALID,75,VALID,0.437891,
2012-11-29, 00:37:05,VALID,1009.12,VALID,0,VALID,104,VALID,0,VALID,23.9084,VALID,62,VALID,0.5625,
2012-11-29, 00:38:05,VALID,1009.09,VALID,0,VALID,104,VALID,0,VALID,23.9455,VALID,61,VALID,0.225,
2012-11-29, 00:39:05,VALID,1009.06,VALID,0,VALID,104,VALID,0,VALID,23.9473,VALID,61,VALID,0.151562,
2012-11-29, 00:40:05,VALID,1009.04,VALID,0,VALID,104,VALID,0,VALID,23.8694,VALID,61,VALID,0,
2012-11-29, 00:41:05,VALID,1008.98,VALID,0,VALID,104,VALID,0,VALID,23.8889,VALID,61,VALID,0.220703,
2012-11-29, 00:42:05,VALID,1008.97,VALID,0,VALID,104,VALID,0,VALID,23.8676,VALID,61,VALID,0.246094,
2012-11-29, 00:43:05,VALID,1008.97,VALID,0,VALID,104,VALID,0,VALID,23.8871,VALID,61,VALID,0.103906,
2012-11-29, 00:44:05,VALID,1008.94,VALID,0,VALID,104,VALID,0.112112,VALID,23.8676,VALID,61,VALID,0.0851562,
2012-11-29, 00:45:05,VALID,1008.93,VALID,0,VALID,104,VALID,0,VALID,23.9065,VALID,61,VALID,0,
2012-11-29, 00:46:05,VALID,1008.91,VALID,0,VALID,104,VALID,0,VALID,23.8871,VALID,61,VALID,0.142969,
2012-11-29, 00:47:05,VALID,1008.9,VALID,0,VALID,104,VALID,0.112112,VALID,23.9455,VALID,61,VALID,0,
2012-11-29, 00:48:05,VALID,1008.89,VALID,0,VALID,104,VALID,0,VALID,23.8676,VALID,61,VALID,0.0671875,
2012-11-29, 00:49:05,VALID,1008.87,VALID,0,VALID,104,VALID,0,VALID,23.8871,VALID,61,VALID,0,
2012-11-29, 00:50:05,VALID,1008.88,VALID,0,VALID,104,VALID,0,VALID,23.8871,VALID,61,VALID,0,
2012-11-29, 00:51:05,VALID,1008.87,VALID,0,VALID,104,VALID,0,VALID,23.9084,VALID,61,VALID,0.129297,
2012-11-29, 00:52:05,VALID,1008.86,VALID,0,VALID,104,VALID,0,VALID,23.9278,VALID,61,VALID,0.15625,
2012-11-29, 00:53:05,VALID,1008.86,VALID,0,VALID,104,VALID,0,VALID,23.8871,VALID,61,VALID,0.233203,
2012-11-29, 00:54:05,VALID,1008.84,VALID,0,VALID,104,VALID,0,VALID,23.8871,VALID,61,VALID,0.249219,
2012-11-29, 00:55:05,VALID,1008.79,VALID,0,VALID,104,VALID,0,VALID,23.9473,VALID,61,VALID,0.423438,
2012-11-29, 00:56:05,VALID,1008.79,VALID,0,VALID,104,VALID,0,VALID,23.8676,VALID,61,VALID,0.391797,
2012-11-29, 00:57:05,VALID,1008.77,VALID,0,VALID,104,VALID,0,VALID,23.9065,VALID,61,VALID,0.354688,
2012-11-29, 00:58:05,VALID,1008.76,VALID,0,VALID,104,VALID,0,VALID,23.9473,VALID,61,VALID,0.275781,
2012-11-29, 00:59:05,VALID,1008.73,VALID,0,VALID,104,VALID,0.112112,VALID,23.8676,VALID,61,VALID,0.389844,
2012-11-29, 01:00:05,VALID,1008.7,VALID,0,VALID,104,VALID,0.112112,VALID,23.9084,VALID,61,VALID,0.340625,
2012-11-29, 01:01:05,VALID,1008.75,VALID,0,VALID,104,VALID,0,VALID,23.8676,VALID,61,VALID,0.207422,
2012-11-29, 01:02:05,VALID,1008.74,VALID,0,VALID,104,VALID,0,VALID,23.8871,VALID,61,VALID,0.249609,
2012-11-29, 01:03:05,VALID,1008.71,VALID,0,VALID,104,VALID,0,VALID,23.8676,VALID,61,VALID,0.353125,
2012-11-29, 01:04:05,VALID,1008.71,VALID,0,VALID,104,VALID,0,VALID,23.8286,VALID,61,VALID,0.250781,
2012-11-29, 01:05:05,VALID,1008.72,VALID,0,VALID,104,VALID,0,VALID,23.8481,VALID,61,VALID,0.15625,
2012-11-29, 01:06:05,VALID,1008.72,VALID,0,VALID,104,VALID,0.112112,VALID,23.8481,VALID,61,VALID,0.101563,
2012-11-29, 01:07:05,VALID,1008.72,VALID,0,VALID,104,VALID,0,VALID,23.8889,VALID,61,VALID,0.00625,
2012-11-29, 01:08:05,VALID,1008.7,VALID,0,VALID,104,VALID,0,VALID,23.8091,VALID,61,VALID,0,
2012-11-29, 01:09:05,VALID,1008.72,VALID,0,VALID,104,VALID,0.112112,VALID,23.8286,VALID,61,VALID,0,
2012-11-29, 01:10:05,VALID,1008.73,VALID,0,VALID,104,VALID,0,VALID,23.8286,VALID,61,VALID,0.0832031,
2012-11-29, 01:11:05,VALID,1008.72,VALID,0,VALID,104,VALID,0,VALID,23.8286,VALID,61,VALID,0.424219,
2012-11-29, 01:12:05,VALID,1008.72,VALID,0,VALID,104,VALID,0.112112,VALID,23.8481,VALID,61,VALID,0.312891,
2012-11-29, 01:13:05,VALID,1008.71,VALID,0,VALID,104,VALID,0,VALID,23.8286,VALID,61,VALID,0.0816406,
2012-11-29, 01:14:05,VALID,1008.74,VALID,0,VALID,104,VALID,0.112112,VALID,23.8481,VALID,62,VALID,0.0527344,
2012-11-29, 01:15:05,VALID,1008.75,VALID,0,VALID,104,VALID,0.112112,VALID,23.8481,VALID,61,VALID,0.263281,
2012-11-29, 01:16:05,VALID,1008.74,VALID,0,VALID,104,VALID,0.112112,VALID,23.8481,VALID,61,VALID,0.459766,
2012-11-29, 01:17:05,VALID,1008.74,VALID,0,VALID,104,VALID,0,VALID,23.926,VALID,61,VALID,0.313672,
2012-11-29, 01:18:05,VALID,1008.73,VALID,0,VALID,104,VALID,0,VALID,23.9084,VALID,61,VALID,0.367188,
2012-11-29, 01:19:05,VALID,1008.71,VALID,0,VALID,104,VALID,0,VALID,23.8481,VALID,61,VALID,0.232812,
2012-11-29, 01:20:05,VALID,1008.7,VALID,0,VALID,104,VALID,0,VALID,23.8694,VALID,61,VALID,0.138672,
2012-11-29, 01:21:05,VALID,1008.7,VALID,0,VALID,104,VALID,0,VALID,23.8694,VALID,62,VALID,0.0835937,
2012-11-29, 01:22:05,VALID,1008.7,VALID,0,VALID,104,VALID,0,VALID,23.8694,VALID,61,VALID,0.153125,
2012-11-29, 01:23:05,VALID,1008.69,VALID,0,VALID,104,VALID,0,VALID,23.8694,VALID,61,VALID,0.204297,
2012-11-29, 01:24:05,VALID,1008.74,VALID,0,VALID,104,VALID,0.112112,VALID,23.8499,VALID,61,VALID,0.255469,
2012-11-29, 01:25:05,VALID,1008.73,VALID,0,VALID,104,VALID,0,VALID,23.8109,VALID,61,VALID,0.298828,
2012-11-29, 01:26:05,VALID,1008.76,VALID,0,VALID,104,VALID,0,VALID,23.7914,VALID,61,VALID,0.29375,
2012-11-29, 01:27:05,VALID,1008.78,VALID,0,VALID,104,VALID,0,VALID,23.7914,VALID,61,VALID,0.226172,
2012-11-29, 01:28:05,VALID,1008.8,VALID,0,VALID,104,VALID,0,VALID,23.7914,VALID,61,VALID,0.0730469,
2012-11-29, 01:29:05,VALID,1008.82,VALID,0,VALID,104,VALID,0,VALID,23.772,VALID,61,VALID,0,
2012-11-29, 01:30:04,VALID,1008.8,VALID,0,VALID,104,VALID,0,VALID,23.8109,VALID,61,VALID,0.00507812,
2012-11-29, 01:31:04,VALID,1008.83,VALID,0,VALID,104,VALID,0,VALID,23.8304,VALID,61,VALID,0.203516,
2012-11-29, 01:32:04,VALID,1008.82,VALID,0,VALID,104,VALID,0,VALID,23.7914,VALID,61,VALID,0.267578,
2012-11-29, 01:33:04,VALID,1008.82,VALID,0,VALID,104,VALID,0,VALID,23.8499,VALID,61,VALID,0.253906,
2012-11-29, 01:34:04,VALID,1008.81,VALID,0,VALID,104,VALID,0,VALID,23.8499,VALID,61,VALID,0.346875,
2012-11-29, 01:35:04,VALID,1008.81,VALID,0,VALID,104,VALID,0,VALID,23.8499,VALID,63,VALID,0.436719,
2012-11-29, 01:36:04,VALID,1008.78,VALID,0,VALID,104,VALID,0,VALID,23.8889,VALID,63,VALID,0.817578,
2012-11-29, 01:37:04,VALID,1008.77,VALID,0,VALID,104,VALID,0,VALID,23.9084,VALID,83,VALID,0.976172,
2012-11-29, 01:38:04,VALID,1008.75,VALID,0,VALID,104,VALID,0,VALID,23.926,VALID,89,VALID,0.570313,
2012-11-29, 01:39:04,VALID,1008.73,VALID,0,VALID,104,VALID,0,VALID,23.9084,VALID,89,VALID,0.447266,
2012-11-29, 01:40:04,VALID,1008.75,VALID,0,VALID,104,VALID,0,VALID,23.9668,VALID,89,VALID,0.207031,
2012-11-29, 01:41:04,VALID,1008.72,VALID,0,VALID,104,VALID,0,VALID,23.9473,VALID,72,VALID,0.705469,
2012-11-29, 01:42:04,VALID,1008.75,VALID,0,VALID,104,VALID,0,VALID,23.9084,VALID,71,VALID,0.721484,
2012-11-29, 01:43:04,VALID,1008.75,VALID,0,VALID,104,VALID,0,VALID,23.9084,VALID,70,VALID,0.637109,
2012-11-29, 01:44:04,VALID,1008.74,VALID,0,VALID,104,VALID,0,VALID,23.9278,VALID,70,VALID,0.45625,
2012-11-29, 01:45:04,VALID,1008.7,VALID,0,VALID,104,VALID,0,VALID,23.9668,VALID,71,VALID,0.483984,
2012-11-29, 01:46:04,VALID,1008.7,VALID,0,VALID,104,VALID,0,VALID,23.965,VALID,71,VALID,0.568359,
2012-11-29, 01:47:04,VALID,1008.69,VALID,0,VALID,104,VALID,0,VALID,23.9668,VALID,67,VALID,0.847656,
2012-11-29, 01:48:04,VALID,1008.68,VALID,0,VALID,104,VALID,0,VALID,23.9473,VALID,69,VALID,0.922266,
2012-11-29, 01:49:04,VALID,1008.66,VALID,0,VALID,104,VALID,0,VALID,23.9455,VALID,68,VALID,0.645312,
2012-11-29, 01:50:04,VALID,1008.63,VALID,0,VALID,104,VALID,0,VALID,23.9863,VALID,50,VALID,0.961719,
2012-11-29, 01:51:04,VALID,1008.6,VALID,0,VALID,104,VALID,0,VALID,23.926,VALID,46,VALID,0.617969,
2012-11-29, 01:52:04,VALID,1008.6,VALID,0,VALID,104,VALID,0,VALID,23.9278,VALID,66,VALID,0.818359,
2012-11-29, 01:53:04,VALID,1008.58,VALID,0,VALID,104,VALID,0,VALID,23.9473,VALID,62,VALID,0.751172,
2012-11-29, 01:54:04,VALID,1008.6,VALID,0,VALID,104,VALID,0,VALID,23.9845,VALID,62,VALID,0.614453,
2012-11-29, 01:55:04,VALID,1008.57,VALID,0,VALID,104,VALID,0,VALID,23.9278,VALID,62,VALID,0.651953,
2012-11-29, 01:56:04,VALID,1008.57,VALID,0,VALID,104,VALID,0.112112,VALID,23.926,VALID,62,VALID,0.352344,
2012-11-29, 01:57:04,VALID,1008.57,VALID,0,VALID,104,VALID,0,VALID,23.9473,VALID,62,VALID,0.0539063,
2012-11-29, 01:58:04,VALID,1008.52,VALID,0,VALID,104,VALID,0,VALID,23.9278,VALID,62,VALID,0.219922,
2012-11-29, 01:59:04,VALID,1008.5,VALID,0,VALID,104,VALID,0,VALID,23.9278,VALID,62,VALID,0.509766,
2012-11-29, 02:00:04,VALID,1008.49,VALID,0,VALID,104,VALID,0,VALID,23.9065,VALID,62,VALID,0.233984,
2012-11-29, 02:01:04,VALID,1008.47,VALID,0,VALID,104,VALID,0,VALID,23.9084,VALID,62,VALID,0.192188,
2012-11-29, 02:02:04,VALID,1008.48,VALID,0,VALID,104,VALID,0,VALID,23.9084,VALID,62,VALID,0.431641,
2012-11-29, 02:03:04,VALID,1008.49,VALID,0,VALID,104,VALID,0,VALID,23.9455,VALID,60,VALID,0.1875,
2012-11-29, 02:04:04,VALID,1008.48,VALID,0,VALID,104,VALID,0,VALID,23.9084,VALID,60,VALID,0.271094,
2012-11-29, 02:05:04,VALID,1008.49,VALID,0,VALID,104,VALID,0,VALID,23.9473,VALID,60,VALID,0.442187,
2012-11-29, 02:06:04,VALID,1008.51,VALID,0,VALID,104,VALID,0,VALID,23.9278,VALID,60,VALID,0.146094,
2012-11-29, 02:07:04,VALID,1008.54,VALID,0,VALID,104,VALID,0,VALID,23.9668,VALID,60,VALID,0.319141,
2012-11-29, 02:08:04,VALID,1008.57,VALID,0,VALID,104,VALID,0,VALID,23.9491,VALID,60,VALID,0.344922,
2012-11-29, 02:09:04,VALID,1008.58,VALID,0,VALID,104,VALID,0,VALID,23.926,VALID,60,VALID,0.224219,
2012-11-29, 02:10:04,VALID,1008.6,VALID,0,VALID,104,VALID,0,VALID,23.9278,VALID,60,VALID,0.135156,
2012-11-29, 02:11:04,VALID,1008.61,VALID,0,VALID,104,VALID,0,VALID,23.9278,VALID,60,VALID,0.386328,
2012-11-29, 02:12:04,VALID,1008.62,VALID,0,VALID,104,VALID,0,VALID,23.9278,VALID,60,VALID,0,
2012-11-29, 02:13:04,VALID,1008.61,VALID,0,VALID,104,VALID,0,VALID,23.9863,VALID,60,VALID,0,
2012-11-29, 02:14:04,VALID,1008.62,VALID,0,VALID,104,VALID,0,VALID,23.9668,VALID,60,VALID,0,
2012-11-29, 02:15:04,VALID,1008.62,VALID,0,VALID,104,VALID,0,VALID,23.9455,VALID,60,VALID,0,
2012-11-29, 02:16:04,VALID,1008.61,VALID,0,VALID,104,VALID,0,VALID,23.9863,VALID,60,VALID,0,
2012-11-29, 02:17:04,VALID,1008.63,VALID,0,VALID,104,VALID,0,VALID,23.9668,VALID,60,VALID,0,
2012-11-29, 02:18:04,VALID,1008.63,VALID,0,VALID,104,VALID,0,VALID,23.9668,VALID,60,VALID,0,
2012-11-29, 02:19:04,VALID,1008.65,VALID,0,VALID,104,VALID,0,VALID,23.965,VALID,60,VALID,0.123047,
2012-11-29, 02:20:04,VALID,1008.64,VALID,0,VALID,104,VALID,0,VALID,23.9863,VALID,60,VALID,0.138281,
2012-11-29, 02:21:04,VALID,1008.67,VALID,0,VALID,104,VALID,0,VALID,24.0448,VALID,77,VALID,0.621094,
2012-11-29, 02:22:04,VALID,1008.66,VALID,0,VALID,104,VALID,0,VALID,24.0448,VALID,78,VALID,0.563672,
2012-11-29, 02:23:04,VALID,1008.63,VALID,0,VALID,104,VALID,0,VALID,24.0235,VALID,78,VALID,0.577344,
2012-11-29, 02:24:04,VALID,1008.62,VALID,0,VALID,104,VALID,0,VALID,24.0448,VALID,97,VALID,0.716016,
2012-11-29, 02:25:04,VALID,1008.59,VALID,0,VALID,104,VALID,0,VALID,24.0448,VALID,98,VALID,0.573047,
2012-11-29, 02:26:04,VALID,1008.6,VALID,0,VALID,104,VALID,0,VALID,24.0643,VALID,98,VALID,0.531641,
2012-11-29, 02:27:04,VALID,1008.56,VALID,0,VALID,104,VALID,0,VALID,24.1227,VALID,98,VALID,0.398047,
2012-11-29, 02:28:04,VALID,1008.55,VALID,0,VALID,104,VALID,0,VALID,24.0448,VALID,97,VALID,0.390234,
2012-11-29, 02:29:04,VALID,1008.55,VALID,0,VALID,104,VALID,0,VALID,24.1032,VALID,97,VALID,0.364062,
2012-11-29, 02:30:04,VALID,1008.54,VALID,0,VALID,104,VALID,0,VALID,24.0643,VALID,98,VALID,0.342187,
2012-11-29, 02:31:04,VALID,1008.53,VALID,0,VALID,104,VALID,0,VALID,24.1227,VALID,98,VALID,0.584766,
2012-11-29, 02:32:04,VALID,1008.51,VALID,0,VALID,104,VALID,0,VALID,24.0819,VALID,98,VALID,0.551953,
2012-11-29, 02:33:04,VALID,1008.53,VALID,0,VALID,104,VALID,0,VALID,24.0837,VALID,98,VALID,0.417188,
2012-11-29, 02:34:04,VALID,1008.53,VALID,0,VALID,104,VALID,0,VALID,24.1227,VALID,98,VALID,0.442969,
2012-11-29, 02:35:04,VALID,1008.51,VALID,0,VALID,104,VALID,0,VALID,24.1227,VALID,99,VALID,0.457812,
2012-11-29, 02:36:04,VALID,1008.5,VALID,0,VALID,104,VALID,0,VALID,24.1422,VALID,100,VALID,0.635547,
2012-11-29, 02:37:04,VALID,1008.5,VALID,0,VALID,104,VALID,0,VALID,24.1227,VALID,118,VALID,0.760547,
2012-11-29, 02:38:04,VALID,1008.51,VALID,0,VALID,104,VALID,0,VALID,24.1227,VALID,119,VALID,0.780469,
2012-11-29, 02:39:04,VALID,1008.49,VALID,0,VALID,104,VALID,0,VALID,24.1617,VALID,127,VALID,0.653516,
2012-11-29, 02:40:04,VALID,1008.53,VALID,0,VALID,104,VALID,0,VALID,24.2025,VALID,112,VALID,1.38516,
2012-11-29, 02:41:04,VALID,1008.52,VALID,0,VALID,104,VALID,0,VALID,24.1422,VALID,145,VALID,0.926953,
2012-11-29, 02:42:04,VALID,1008.5,VALID,0,VALID,104,VALID,0,VALID,24.1617,VALID,118,VALID,0.819922,
2012-11-29, 02:43:04,VALID,1008.49,VALID,0,VALID,104,VALID,0,VALID,24.1812,VALID,112,VALID,1.13828,
2012-11-29, 02:44:04,VALID,1008.49,VALID,0,VALID,104,VALID,0,VALID,24.1422,VALID,103,VALID,0.804688,
2012-11-29, 02:45:04,VALID,1008.5,VALID,0,VALID,104,VALID,0,VALID,24.1422,VALID,116,VALID,1.18594,
2012-11-29, 02:46:04,VALID,1008.51,VALID,0,VALID,104,VALID,0,VALID,24.1422,VALID,121,VALID,0.709766,
2012-11-29, 02:47:04,VALID,1008.53,VALID,0,VALID,104,VALID,0,VALID,24.1617,VALID,105,VALID,1.35742,
2012-11-29, 02:48:04,VALID,1008.54,VALID,0,VALID,104,VALID,0,VALID,24.1422,VALID,108,VALID,1.04453,
2012-11-29, 02:49:04,VALID,1008.54,VALID,0,VALID,104,VALID,0,VALID,24.1812,VALID,125,VALID,1.60938,
2012-11-29, 02:50:04,VALID,1008.56,VALID,0,VALID,104,VALID,0,VALID,24.1812,VALID,125,VALID,1.45195,
2012-11-29, 02:51:04,VALID,1008.54,VALID,0,VALID,104,VALID,0,VALID,24.1812,VALID,110,VALID,1.03203,
2012-11-29, 02:52:04,VALID,1008.51,VALID,0,VALID,104,VALID,0,VALID,24.2007,VALID,118,VALID,2.30586,
2012-11-29, 02:53:04,VALID,1008.51,VALID,0,VALID,104,VALID,0,VALID,24.2202,VALID,124,VALID,1.20547,
2012-11-29, 02:54:04,VALID,1008.46,VALID,0,VALID,104,VALID,0,VALID,24.2202,VALID,140,VALID,2.50156,
2012-11-29, 02:55:04,VALID,1008.43,VALID,0,VALID,104,VALID,0,VALID,24.2591,VALID,112,VALID,2.45547,
2012-11-29, 02:56:04,VALID,1008.41,VALID,0,VALID,104,VALID,0,VALID,24.2591,VALID,116,VALID,1.92578,
2012-11-29, 02:57:04,VALID,1008.4,VALID,0,VALID,104,VALID,0,VALID,24.2202,VALID,118,VALID,1.80781,
2012-11-29, 02:58:04,VALID,1008.41,VALID,0,VALID,104,VALID,0,VALID,24.2591,VALID,129,VALID,1.54844,
2012-11-29, 02:59:04,VALID,1008.4,VALID,0,VALID,104,VALID,0,VALID,24.3176,VALID,123,VALID,1.37578,
2012-11-29, 03:00:04,VALID,1008.41,VALID,0,VALID,104,VALID,0,VALID,24.2768,VALID,116,VALID,1.2125,
2012-11-29, 03:01:04,VALID,1008.41,VALID,0,VALID,104,VALID,0,VALID,24.2786,VALID,128,VALID,1.23047,
2012-11-29, 03:02:04,VALID,1008.4,VALID,0,VALID,104,VALID,0,VALID,24.2786,VALID,101,VALID,1.08164,
2012-11-29, 03:03:04,VALID,1008.41,VALID,0,VALID,104,VALID,0,VALID,24.2573,VALID,122,VALID,1.65898,
2012-11-29, 03:04:04,VALID,1008.4,VALID,0,VALID,104,VALID,0,VALID,24.2786,VALID,111,VALID,0.636328,
2012-11-29, 03:05:04,VALID,1008.41,VALID,0,VALID,104,VALID,0,VALID,24.3176,VALID,115,VALID,0.900781,
2012-11-29, 03:06:04,VALID,1008.38,VALID,0,VALID,104,VALID,0,VALID,24.2981,VALID,143,VALID,1.17773,
2012-11-29, 03:07:04,VALID,1008.37,VALID,0,VALID,104,VALID,0,VALID,24.3176,VALID,128,VALID,0.883984,
2012-11-29, 03:08:04,VALID,1008.35,VALID,0,VALID,104,VALID,0,VALID,24.2981,VALID,121,VALID,0.727734,
2012-11-29, 03:09:04,VALID,1008.34,VALID,0,VALID,104,VALID,0,VALID,24.2786,VALID,113,VALID,0.829687,
2012-11-29, 03:10:04,VALID,1008.36,VALID,0,VALID,104,VALID,0,VALID,24.3389,VALID,110,VALID,1.92422,
2012-11-29, 03:11:04,VALID,1008.35,VALID,0,VALID,104,VALID,0,VALID,24.3176,VALID,127,VALID,1.67539,
2012-11-29, 03:12:04,VALID,1008.33,VALID,0,VALID,104,VALID,0,VALID,24.2981,VALID,101,VALID,1.20586,
2012-11-29, 03:13:04,VALID,1008.34,VALID,0,VALID,104,VALID,0,VALID,24.2786,VALID,126,VALID,1.31484,
2012-11-29, 03:14:04,VALID,1008.36,VALID,0,VALID,104,VALID,0,VALID,24.3176,VALID,160,VALID,0.683594,
2012-11-29, 03:15:04,VALID,1008.31,VALID,0,VALID,104,VALID,0,VALID,24.2981,VALID,151,VALID,1.14766,
2012-11-29, 03:16:04,VALID,1008.33,VALID,0,VALID,104,VALID,0,VALID,24.2981,VALID,169,VALID,1.12188,
2012-11-29, 03:17:04,VALID,1008.33,VALID,0,VALID,104,VALID,0,VALID,24.3176,VALID,147,VALID,0.871484,
2012-11-29, 03:18:04,VALID,1008.36,VALID,0,VALID,104,VALID,0,VALID,24.2981,VALID,160,VALID,1.36523,
2012-11-29, 03:19:04,VALID,1008.36,VALID,0,VALID,104,VALID,0,VALID,24.2981,VALID,147,VALID,1.04141,
2012-11-29, 03:20:04,VALID,1008.38,VALID,0,VALID,104,VALID,0,VALID,24.2981,VALID,162,VALID,0.756641,
2012-11-29, 03:21:04,VALID,1008.38,VALID,0,VALID,104,VALID,0,VALID,24.2981,VALID,196,VALID,0.411719,
2012-11-29, 03:22:04,VALID,1008.37,VALID,0,VALID,104,VALID,0,VALID,24.3176,VALID,181,VALID,1.07344,
2012-11-29, 03:23:04,VALID,1008.36,VALID,0,VALID,104,VALID,0,VALID,24.3176,VALID,196,VALID,0.959375,
2012-11-29, 03:24:04,VALID,1008.37,VALID,0,VALID,104,VALID,0,VALID,24.3176,VALID,154,VALID,0.949219,
2012-11-29, 03:25:04,VALID,1008.4,VALID,0,VALID,104,VALID,0.112112,VALID,24.2981,VALID,179,VALID,1.05039,
2012-11-29, 03:26:04,VALID,1008.37,VALID,0,VALID,104,VALID,0,VALID,24.3176,VALID,155,VALID,0.775391,
2012-11-29, 03:27:04,VALID,1008.37,VALID,0,VALID,104,VALID,0,VALID,24.3176,VALID,155,VALID,1.26953,
2012-11-29, 03:28:04,VALID,1008.41,VALID,0,VALID,104,VALID,0,VALID,24.3371,VALID,153,VALID,1.5918,
2012-11-29, 03:29:04,VALID,1008.42,VALID,0,VALID,104,VALID,0,VALID,24.3566,VALID,185,VALID,1.14297,
2012-11-29, 03:30:04,VALID,1008.4,VALID,0,VALID,104,VALID,0,VALID,24.3566,VALID,174,VALID,1.04414,
2012-11-29, 03:31:04,VALID,1008.41,VALID,0,VALID,104,VALID,0,VALID,24.3566,VALID,157,VALID,1.8082,
2012-11-29, 03:32:04,VALID,1008.39,VALID,0,VALID,104,VALID,0,VALID,24.3176,VALID,172,VALID,1.27227,
2012-11-29, 03:33:04,VALID,1008.42,VALID,0,VALID,104,VALID,0,VALID,24.3761,VALID,129,VALID,1.62461,
2012-11-29, 03:34:04,VALID,1008.4,VALID,0,VALID,104,VALID,0,VALID,24.3371,VALID,176,VALID,2.37969,
2012-11-29, 03:35:04,VALID,1008.37,VALID,0,VALID,104,VALID,0,VALID,24.3761,VALID,189,VALID,1.5293,
2012-11-29, 03:36:04,VALID,1008.39,VALID,0,VALID,104,VALID,0,VALID,24.3352,VALID,178,VALID,1.41016,
2012-11-29, 03:37:04,VALID,1008.38,VALID,0,VALID,104,VALID,0,VALID,24.3566,VALID,171,VALID,2.03008,
2012-11-29, 03:38:04,VALID,1008.4,VALID,0,VALID,104,VALID,0,VALID,24.3547,VALID,168,VALID,2.08164,
2012-11-29, 03:39:04,VALID,1008.38,VALID,0,VALID,104,VALID,0,VALID,24.2981,VALID,117,VALID,1.47305,
2012-11-29, 03:40:04,VALID,1008.38,VALID,0.5,VALID,104,VALID,0,VALID,24.2591,VALID,154,VALID,1.2793,
2012-11-29, 03:41:04,VALID,1008.34,VALID,0,VALID,104,VALID,0,VALID,24.2591,VALID,172,VALID,2.17148,
2012-11-29, 03:42:04,VALID,1008.37,VALID,0,VALID,104,VALID,0,VALID,24.2202,VALID,160,VALID,2.91523,
2012-11-29, 03:43:04,VALID,1008.33,VALID,0,VALID,104,VALID,0,VALID,24.1422,VALID,169,VALID,1.84609,
2012-11-29, 03:44:04,VALID,1008.33,VALID,0.5,VALID,104,VALID,0,VALID,24.1245,VALID,152,VALID,0.552734,
2012-11-29, 03:45:04,VALID,1008.37,VALID,0,VALID,104,VALID,0,VALID,24.0837,VALID,133,VALID,1.81641,
2012-11-29, 03:46:04,VALID,1008.37,VALID,0,VALID,104,VALID,0,VALID,24.1245,VALID,131,VALID,1.11953,
2012-11-29, 03:47:04,VALID,1008.38,VALID,0,VALID,104,VALID,0,VALID,24.004,VALID,103,VALID,1.06758,
2012-11-29, 03:48:04,VALID,1008.4,VALID,0,VALID,104,VALID,0,VALID,23.9863,VALID,108,VALID,0.857422,
2012-11-29, 03:49:04,VALID,1008.43,VALID,0,VALID,104,VALID,0,VALID,24.0058,VALID,146,VALID,1.14414,
2012-11-29, 03:50:04,VALID,1008.44,VALID,0,VALID,104,VALID,0,VALID,24.0058,VALID,104,VALID,0.360547,
2012-11-29, 03:51:04,VALID,1008.49,VALID,0.5,VALID,104,VALID,0,VALID,23.9863,VALID,155,VALID,0.734766,
2012-11-29, 03:52:04,VALID,1008.53,VALID,0,VALID,104,VALID,0,VALID,23.9863,VALID,154,VALID,0.308203,
2012-11-29, 03:53:04,VALID,1008.58,VALID,0,VALID,104,VALID,0,VALID,24.0253,VALID,143,VALID,0.866406,
2012-11-29, 03:54:04,VALID,1008.63,VALID,0,VALID,104,VALID,0,VALID,24.0058,VALID,143,VALID,0.730859,